Everett, WA

4:09 PM PST on December 15, 2019 (GMT -0800)
Snohomish County

Weather History for KPAE - October, 2019

Change the Weather History Date:

Saturday, October 12, 2019

  Actual Average Record
Temperature  
Mean Temperature 50 °F -  
Max Temperature 55 °F 60 °F 80 °F (1991)
Min Temperature 46 °F 42 °F 31 °F (1972)
Degree Days  
Heating Degree Days 15    
Moisture  
Dew Point 37 °F    
Average Humidity 64    
Maximum Humidity 93    
Minimum Humidity 44    
Precipitation  
Precipitation 0.01 in - - ()
Sea Level Pressure  
Sea Level Pressure 30.00 in    
Wind  
Wind Speed 4 mph (NNE)    
Max Wind Speed 9 mph    
Max Gust Speed -    
Visibility 10 miles    
Events Rain    
Averages and records for this station are not official NWS values.
T = Trace of Precipitation, MM = Missing Value Source: NWS Daily Summary

Daily Weather History Graph

Daily Weather History Graph

Search for Another Location

Airport or City:

Astronomy

Oct. 12, 2019 Rise Set
Actual Time 7:23 AM PDT 6:26 PM PDT
Civil Twilight 6:52 AM PDT 6:57 PM PDT
Nautical Twilight 6:16 AM PDT 7:33 PM PDT
Astronomical Twilight 5:40 AM PDT 8:09 PM PDT
Moon 6:33 PM PDT (10/12) 5:55 AM PDT (10/12)
Length of Visible Light 12h 05m
Length of Day
11h 02m
Waxing Gibbous, 99% of the Moon is Illuminated
Oct 12
Waxing Gibbous
Oct 13
Full
Oct 21
Last Quarter
Oct 27
New
Nov 4
First Quarter

Hourly Weather History & Observations

Time (PDT) Temp. Dew Point Humidity Pressure Visibility Wind Dir Wind Speed Gust Speed Precip Events Conditions
12:53 AM 50.0 °F 30.0 °F 46% 30.06 in 10.0 mi Calm Calm - N/A   Clear
1:53 AM 48.0 °F 30.0 °F 50% 30.05 in 10.0 mi East 5.8 mph - N/A   Clear
2:53 AM 48.0 °F 28.9 °F 48% 30.04 in 10.0 mi Calm Calm - N/A   Clear
3:53 AM 48.0 °F 30.0 °F 50% 30.03 in 10.0 mi East 5.8 mph - N/A   Clear
4:53 AM 48.9 °F 28.9 °F 46% 30.02 in 10.0 mi East 5.8 mph - N/A   Clear
5:53 AM 48.9 °F 28.0 °F 44% 30.01 in 10.0 mi East 4.6 mph - N/A   Clear
6:53 AM 48.0 °F 28.9 °F 48% 30.02 in 10.0 mi Calm Calm - N/A   Clear
7:53 AM 50.0 °F 28.9 °F 44% 30.01 in 10.0 mi ENE 5.8 mph - N/A   Partly Cloudy
8:53 AM 46.9 °F 35.1 °F 63% 30.03 in 10.0 mi North 3.5 mph - N/A   Mostly Cloudy
9:53 AM 50.0 °F 36.0 °F 59% 30.03 in 10.0 mi North 3.5 mph - N/A   Overcast
10:53 AM 51.1 °F 37.9 °F 61% 30.02 in 10.0 mi East 6.9 mph - N/A   Partly Cloudy
11:53 AM 53.1 °F 34.0 °F 48% 30.00 in 10.0 mi NE 4.6 mph - N/A   Overcast
12:53 PM 54.0 °F 35.1 °F 49% 30.00 in 10.0 mi Calm Calm - N/A   Scattered Clouds
1:53 PM 54.0 °F 37.9 °F 55% 29.99 in 10.0 mi Variable 3.5 mph - N/A   Overcast
2:53 PM 53.1 °F 41.0 °F 64% 29.97 in 10.0 mi North 9.2 mph - N/A   Overcast
3:53 PM 53.1 °F 44.1 °F 71% 29.97 in 10.0 mi NNW 6.9 mph - N/A   Mostly Cloudy
4:53 PM 51.1 °F 43.0 °F 74% 29.97 in 10.0 mi NNW 5.8 mph - 0.00 in Rain Light Rain
5:53 PM 50.0 °F 44.1 °F 80% 29.96 in 10.0 mi North 6.9 mph - 0.00 in   Overcast
6:53 PM 50.0 °F 44.1 °F 80% 29.96 in 10.0 mi NW 3.5 mph - 0.00 in   Overcast
7:53 PM 50.0 °F 45.0 °F 83% 29.96 in 10.0 mi North 5.8 mph - N/A   Overcast
8:53 PM 50.0 °F 46.9 °F 89% 29.96 in 10.0 mi NNE 5.8 mph - N/A   Overcast
9:53 PM 48.9 °F 46.9 °F 93% 29.96 in 10.0 mi NNW 3.5 mph - N/A   Overcast
10:53 PM 48.9 °F 46.9 °F 93% 29.96 in 10.0 mi NNW 3.5 mph - 0.00 in Rain Light Rain
11:53 PM 48.0 °F 46.0 °F 93% 29.95 in 10.0 mi NNW 4.6 mph - 0.01 in   Overcast